Theta_e
289 284 283 287 291 291 289 287 287 291 295 294 294 295 298 300 300 301 303 304 305 307 310 309 311 312 312 312 313 313 314 325 332 330 328 328 330 331 331 333 334 334 334 333
285 282 288 291 290 289 288 285 285 290 294 293 292 291 295 297 299 301 302 303 303 304 305 308 309 310 310 312 312 312 314 324 331 333 330 330 330 331 331 333 334 335 334 334
282 286 291 290 288 287 286 285 286 287 292 294 291 290 293 296 298 300 301 302 304 304 304 307 309 308 309 309 312 314 314 324 328 330 328 327 327 327 326 329 330 333 334 334
284 288 287 286 286 287 282 290 290 290 287 283 290 281 290 294 295 297 299 300 302 303 305 306 306 307 309 309 311 315 320 327 330 330 327 328 325 324 325 328 329 330 332 331
285 285 284 283 285 289 285 291 289 288 286 283 286 282 288 291 291 293 297 299 300 301 302 303 305 306 307 307 312 323 327 330 330 329 330 328 324 323 327 327 327 327 328 329
288 290 288 286 289 289 291 288 287 286 284 278 284 283 285 288 291 292 296 298 300 300 301 302 304 309 314 325 329 331 329 327 328 329 326 326 324 325 325 324 325 325 324 326
287 286 290 290 285 287 286 281 275 275 275 277 286 283 287 291 294 295 296 297 299 300 301 301 303 317 324 329 330 331 329 325 325 326 325 325 325 325 325 325 323 323 322 322
281 279 287 292 286 283 282 281 276 274 275 277 287 281 286 294 297 298 298 298 298 298 299 305 316 322 328 328 330 328 326 324 324 325 324 324 325 325 325 324 324 323 323 324
283 282 292 293 292 290 284 279 284 278 280 276 281 285 291 295 295 296 296 298 297 298 299 314 322 326 328 328 326 325 324 322 323 323 323 323 323 323 323 322 323 322 323 324
287 280 289 292 293 291 286 288 278 277 274 274 279 281 284 289 292 295 296 296 298 302 314 320 322 325 323 323 323 323 323 322 322 323 323 323 323 323 323 323 322 323 323 324
287 283 283 288 285 282 285 282 283 280 278 276 276 279 289 291 293 293 295 300 306 307 318 321 322 324 321 322 322 322 322 322 322 323 323 323 322 323 323 323 322 323 322 322
288 283 280 283 287 290 286 284 284 278 278 279 278 279 291 292 293 295 298 310 311 314 319 321 322 323 321 321 322 321 322 322 322 323 323 322 322 322 321 322 322 321 321 323
287 281 277 278 284 287 284 287 285 284 283 278 277 280 292 293 295 296 296 311 313 317 318 321 322 321 321 320 321 322 322 322 323 323 321 321 320 320 320 321 322 321 322 323
291 281 279 274 279 284 282 285 286 285 279 280 281 284 290 292 293 296 300 308 313 318 320 321 322 320 321 321 322 322 321 322 322 322 321 320 320 320 321 322 321 320 321 321
286 281 281 283 285 286 285 285 286 284 286 282 284 285 290 292 294 297 303 307 315 317 320 320 320 320 320 320 321 322 322 322 322 322 321 320 320 321 321 321 320 320 321 323
288 281 283 282 285 286 284 285 285 286 286 286 288 287 294 296 297 298 304 311 315 317 319 320 321 321 320 321 321 321 321 321 322 322 321 323 324 321 321 321 320 321 323 326
286 285 281 276 284 283 278 282 284 285 289 288 284 289 294 295 298 300 307 312 315 318 320 320 321 322 322 321 322 320 320 321 322 324 325 325 323 321 321 321 321 319 322 325
287 285 281 276 277 269 282 291 293 289 290 291 291 293 296 298 303 307 309 312 316 319 320 320 321 322 322 321 320 320 319 321 323 324 325 324 323 321 321 320 319 321 324 324
290 286 281 274 275 282 285 291 291 289 289 295 292 294 297 305 307 308 315 316 316 318 320 321 322 321 320 320 319 319 318 321 324 325 324 324 322 321 320 319 317 319 321 320
290 288 283 280 276 274 286 292 295 295 285 301 302 302 303 303 299 305 314 316 316 318 319 320 321 320 319 318 318 318 318 320 322 325 324 324 322 320 320 318 318 320 320 320
284 284 280 280 278 281 291 292 293 285 286 301 302 301 302 300 305 308 316 317 319 319 319 320 320 320 320 316 318 317 318 319 323 326 325 323 321 320 321 319 321 321 321 321
284 282 281 282 279 277 291 289 288 295 301 302 303 304 302 303 307 312 314 316 318 319 319 321 320 318 317 317 318 316 318 321 323 326 323 321 320 322 322 320 321 322 321 319
283 285 283 284 284 290 291 290 294 295 295 303 303 305 305 305 306 308 311 316 317 319 319 321 321 317 315 317 319 316 318 320 322 322 321 320 321 322 321 321 320 320 321 319
289 290 284 285 289 290 293 295 302 303 303 305 306 308 306 304 307 308 310 310 312 319 320 320 318 316 314 317 317 319 316 320 321 320 320 320 320 320 321 322 322 321 319 319
291 292 289 288 292 294 294 298 301 302 304 303 304 306 306 305 306 308 309 310 312 314 319 318 317 317 316 316 316 315 317 321 320 320 320 320 320 321 320 319 319 321 321 319
293 291 288 288 295 294 296 300 303 299 302 303 303 303 305 306 306 308 308 310 313 314 317 317 317 316 316 316 315 314 319 321 320 319 320 320 320 320 320 317 312 296 301 303
Wind_Speed
4 4 15 14 15 5 4 2 1 3 4 4 17 21 16 10 12 16 18 19 20 20 15 9 10 11 10 10 10 10 6 7 9 6 6 3 6 5 5 6 10 11 10 12
5 10 8 5 7 10 6 1 3 5 8 4 7 12 9 8 13 14 18 17 14 13 9 11 11 10 9 12 11 9 8 7 7 6 4 4 5 3 4 5 7 10 9 10
7 9 3 7 5 5 4 9 3 6 8 12 8 18 13 8 12 16 17 15 15 15 13 14 14 10 10 10 11 9 7 9 7 7 7 5 6 4 3 4 5 6 10 9
6 7 6 6 9 7 5 3 1 2 3 8 2 11 15 15 18 14 12 14 13 12 14 13 10 12 13 13 7 7 6 9 10 12 9 11 5 6 4 4 4 5 7 7
11 4 3 5 6 7 9 8 8 7 6 3 3 5 13 5 12 12 16 19 18 17 12 12 14 14 11 8 7 3 7 8 10 9 10 9 6 4 6 6 10 6 4 6
24 3 5 7 7 9 6 7 4 1 3 7 7 6 24 10 12 7 15 13 12 11 10 10 10 7 7 3 3 7 8 6 9 9 10 11 13 10 9 7 5 4 4 3
11 14 11 5 3 2 5 5 2 1 3 14 12 10 26 4 6 4 9 10 10 9 9 9 7 3 3 4 6 8 9 8 8 10 9 9 11 12 12 9 6 7 4 2
3 2 6 5 12 8 8 8 6 7 7 5 6 15 10 12 13 10 6 9 10 11 9 6 4 4 4 7 8 9 10 10 8 9 8 8 10 7 6 6 7 5 4 4
2 4 5 2 2 10 5 4 7 3 3 2 5 8 9 16 11 8 8 9 11 11 8 5 6 6 7 7 7 10 11 10 9 9 8 8 8 8 8 7 6 4 4 4
3 5 7 6 4 5 4 4 3 1 5 5 6 7 7 7 2 4 8 11 14 6 5 7 8 10 5 6 8 9 9 11 9 9 8 8 8 8 8 7 8 6 5 5
4 0 6 2 3 4 1 1 2 2 5 4 2 6 6 15 4 8 11 11 14 6 9 9 10 9 8 7 8 9 10 11 9 9 9 10 8 8 7 6 6 5 5 6
1 1 4 6 5 5 2 3 1 4 8 5 4 9 6 6 6 8 13 11 6 3 9 12 12 10 9 9 9 9 9 10 8 8 9 9 8 7 6 6 5 5 6 4
2 1 4 5 3 6 2 3 3 1 0 6 4 8 5 9 14 13 11 8 3 5 7 11 12 9 9 9 9 9 8 9 8 9 9 7 6 6 6 6 5 5 5 4
0 2 5 5 3 3 4 8 8 3 4 5 10 10 22 19 12 17 14 8 3 6 7 8 10 9 9 8 9 9 7 8 8 8 8 7 6 6 5 5 6 5 4 5
5 4 3 8 11 8 8 13 13 16 12 9 3 2 16 14 15 17 11 6 5 9 7 7 8 10 8 8 7 7 7 7 7 7 6 6 6 5 5 5 5 5 4 3
6 4 2 11 10 12 14 17 16 16 19 17 14 16 16 17 11 12 10 9 8 10 11 7 7 10 11 11 9 8 8 6 6 6 5 6 7 5 5 5 5 5 4 4
6 2 1 5 5 4 12 17 23 18 14 13 14 12 15 14 12 7 8 9 10 11 12 11 11 10 11 10 9 9 7 6 6 6 6 6 5 6 5 6 5 5 4 4
3 6 3 4 2 4 7 10 12 15 11 15 7 15 12 10 13 14 10 8 7 10 11 10 9 7 8 7 7 7 7 6 6 6 7 7 6 6 5 5 5 4 3 4
14 4 2 3 4 10 12 2 5 5 5 10 15 16 14 14 12 7 3 3 5 7 7 8 8 6 5 8 7 8 6 6 6 6 7 7 7 6 6 5 5 3 4 3
11 13 7 3 4 5 1 3 10 10 8 3 3 7 10 6 5 4 4 3 6 5 7 9 8 6 7 6 8 8 7 6 6 7 7 7 7 6 6 6 5 3 3 3
1 4 12 8 5 7 5 8 7 6 1 8 7 9 10 7 6 4 7 1 5 5 6 8 9 10 9 8 9 7 7 8 6 6 7 7 6 6 6 6 3 4 4 4
3 2 3 4 5 7 10 11 6 4 6 7 9 7 9 11 8 1 6 7 6 5 5 10 11 8 7 9 10 8 9 6 6 6 8 6 6 4 5 6 3 4 5 5
3 2 3 3 3 7 11 14 18 18 14 5 6 8 7 6 3 5 3 2 7 4 6 11 11 9 8 9 10 10 7 7 7 6 6 5 6 5 5 6 5 3 4 5
3 5 3 3 4 8 11 18 7 6 13 10 11 7 7 4 3 9 7 6 2 4 11 10 11 11 10 10 9 9 9 8 8 7 7 6 5 6 5 3 4 4 4 4
4 5 5 4 5 8 7 18 13 16 17 18 17 14 11 6 7 9 9 8 6 4 3 8 10 12 12 11 9 7 9 10 8 6 6 6 4 5 5 4 2 4 2 4
3 4 4 3 8 7 8 13 15 19 17 16 16 16 14 11 9 9 11 8 9 10 7 4 5 6 8 10 10 8 9 10 9 7 5 5 5 4 4 5 3 8 3 7
Wind_Direction
260 191 217 216 226 255 40 69 81 335 266 216 224 251 252 252 261 262 263 264 266 268 270 261 264 268 285 282 268 250 215 189 159 153 145 140 177 158 154 153 166 172 180 180
332 258 240 234 205 248 270 281 248 265 257 226 285 279 274 258 256 247 253 257 258 264 277 268 265 271 270 265 270 255 227 176 169 172 133 144 129 142 144 159 157 171 178 164
200 263 320 207 213 212 205 228 224 220 297 285 291 282 270 247 241 249 256 256 255 250 248 258 265 255 268 262 258 262 201 173 164 136 113 88 85 92 117 149 149 162 166 181
208 251 226 243 232 220 216 175 301 314 174 258 47 283 278 271 262 251 253 252 249 239 244 246 250 266 261 263 269 254 185 164 151 148 139 154 137 156 183 139 133 139 150 149
269 224 233 224 208 182 245 191 225 235 267 312 258 304 272 217 258 256 252 255 250 240 232 244 243 250 269 280 261 215 155 147 147 145 144 151 133 115 127 129 133 117 131 125
241 257 186 221 244 214 205 178 179 149 126 258 200 188 278 239 248 231 243 251 255 256 247 251 255 269 279 318 178 175 130 120 134 138 139 142 139 134 127 117 119 112 97 115
322 228 237 228 237 235 188 117 125 109 188 233 175 190 239 258 311 237 275 268 259 253 253 254 251 224 219 203 175 140 126 121 121 127 126 138 127 130 134 140 136 137 131 130
286 226 177 201 198 192 200 170 165 171 188 226 142 228 245 225 249 272 280 260 274 267 257 252 171 164 162 153 140 115 117 114 114 113 111 110 115 123 128 135 142 137 132 146
243 288 330 329 261 153 173 164 214 27 287 119 213 277 287 280 281 282 298 297 286 276 260 165 140 141 135 129 120 128 116 107 106 112 117 108 112 120 125 112 111 121 129 146
306 302 139 273 343 269 161 171 105 321 207 229 251 257 238 295 340 331 330 294 279 274 130 147 146 142 106 101 104 98 108 115 119 113 113 116 117 112 116 119 130 141 138 135
4 150 295 346 203 210 23 270 223 194 174 208 297 267 227 222 328 351 312 300 311 192 163 150 144 129 113 104 105 107 106 110 105 107 110 110 110 112 114 121 131 134 129 140
6 301 277 263 274 333 6 293 254 194 244 265 123 284 313 78 52 10 336 332 348 116 158 144 138 124 119 113 117 114 116 114 115 116 111 111 113 115 116 124 135 134 133 147
218 257 312 326 12 37 360 315 268 218 317 216 222 247 257 340 7 340 332 323 33 138 149 138 131 129 124 120 124 126 126 125 122 119 117 115 119 121 128 136 134 129 142 148
256 204 213 212 229 165 292 294 306 220 252 264 243 301 281 302 340 330 329 306 157 165 155 159 129 128 128 128 134 135 127 133 129 129 130 136 142 142 137 138 131 140 147 152
153 240 231 260 273 279 256 266 276 270 252 253 315 267 288 310 311 300 304 276 186 172 156 164 146 135 131 129 132 136 139 138 140 137 139 137 132 135 133 132 140 143 147 177
184 244 305 287 258 249 264 263 249 254 254 259 257 270 278 275 278 281 301 294 199 176 161 158 164 149 151 151 152 147 152 144 139 127 135 145 150 141 145 136 146 144 157 155
176 207 185 254 242 300 273 252 248 247 223 216 233 244 259 275 277 282 302 282 205 185 171 161 166 173 159 158 155 159 153 135 133 137 145 138 134 147 153 140 134 130 157 149
208 181 185 263 17 256 246 314 296 230 224 218 231 243 250 283 283 277 260 249 200 183 172 157 155 170 160 148 146 138 130 142 147 153 145 139 147 146 146 139 126 121 115 139
203 188 245 233 212 286 290 27 11 346 279 237 239 262 269 288 294 262 233 257 161 156 155 158 147 155 148 155 147 140 130 145 156 153 150 150 153 146 149 145 137 130 126 139
192 209 208 169 237 266 229 33 343 322 259 180 244 272 270 300 225 248 160 222 99 91 140 150 144 141 150 158 139 138 143 155 170 162 158 152 150 152 153 148 150 142 145 149
180 182 219 226 252 278 47 334 315 236 224 321 324 290 284 243 213 229 157 188 123 120 174 137 146 166 169 143 141 148 147 184 179 148 142 148 156 156 144 144 155 143 139 130
305 294 207 214 227 250 12 322 236 14 310 320 303 283 278 274 278 169 199 206 141 69 151 166 160 164 148 151 147 154 179 170 150 148 143 158 148 141 130 129 119 131 135 127
301 255 288 265 307 316 298 263 261 257 265 309 302 310 261 288 348 57 48 322 24 319 202 179 169 158 149 161 162 167 188 153 146 141 142 141 133 125 132 135 141 127 136 136
260 211 239 302 230 284 316 307 332 59 39 24 18 6 3 339 53 74 60 44 19 253 191 165 157 163 164 169 165 183 149 155 146 146 145 141 143 128 130 136 143 120 149 136
250 295 284 257 268 332 354 331 10 33 30 31 17 18 8 358 41 78 63 43 33 353 149 151 178 171 174 166 160 147 152 150 151 150 149 141 135 141 136 96 105 143 180 160
317 301 346 333 345 336 7 336 17 21 22 21 13 9 0 9 25 56 61 44 43 38 44 97 141 145 154 157 149 146 154 152 144 146 148 159 149 151 142 136 133 44 60 159